Location: Kellogg
(38.0159°N, 90.0546°W)
Time: 21:07:36
(UTC+00:00)

Transit 4A - Pass Details

Date: 16 September 2024
Orbit: 864 x 978 km, 66.8° (Epoch: 12 October)

Event Time Altitude Azimuth Distance (km) Brightness Sun altitude
Rises 15:34:02 0° 346° (NNW) 3,593 10.6 41.9°
Reaches altitude 10° 15:38:16 10° 13° (NNE) 2,672 10.2 42.5°
Maximum altitude 15:41:00 13° 40° (NE) 2,471 10.3 42.9°
Drops below altitude 10° 15:43:47 10° 66° (ENE) 2,697 10.7 43.3°
Sets 15:48:04 0° 93° (E) 3,657 11.5 44.0°
